NOAA 16 DEB, 41155

Orbit data source: Space-Track

NOAA 16 DEB, 41155 is space debris in SSO originally from a launch on Thu, 21 Sep 2000 UTC launched from the Air Force Western Test Range (AFWTR). Debris objects in space refer to the collection of defunct objects orbiting the Earth. Examples of debris include non-operational satellites, rocket bodies, and fragments generated from explosions, collisions, or faulty payload assembly.

Loading next visibility...
Identifier
41155, 2000-055CN
Orbit
SSO
Country
Flag of USUS
Related business
Manufacturer
Unknown
Mission
Spacecraft
Bus & Motor
Unknown
Mass
Unknown
Launch date (UTC)
2000-09-21 (25 years ago)
Launch vehicle
Unknown
Launch site
Air Force Western Test Range (AFWTR)
Object type
Payload
Rocket body
Debris
Shape & HBR
Unknown shape, 0.1 m
Radar Cross Section
Small (<0.1 m²)

Expand to show TLE details & history
Last TLE update: 2 days ago

TLE from 2 days ago
0 NOAA 16 DEB
1 41155U 00055CN  25285.28038560  .00008734  00000-0  31168-2 0  9993
2 41155  98.8752  46.0453 0019614 178.2412 181.8845 14.34284672510759
Epoch: 2025-10-12T06:43Z
TLE epoch observation values (Epoch: 2025-10-12T06:43:45.315Z)
Latitude
0.00004°
Longitude
-75.9933°
Altitude
794.403 km
Speed
7.449 km/s
True Right ascension
03h 04m 10s
True Declination
0° 00' 00"
Sunlit
Object was in full shadow at epoch
Visualization orbit readout
Latitude
Unknown
Longitude
Unknown
Altitude
Unknown
Speed
Unknown
Apparent Right ascension
Unknown
Apparent Declination
Unknown
Sunlit
N/A
Visualization observer readout
Local Sidereal Time
01:53:57
Azimuth
Unknown
Elevation
Unknown
Doppler factor
Unknown
Orbital elements
Apogee altitude
788.621 km
Perigee altitude
760.563 km
Semi-major axis
7,152.729 km
Eccentricity
0.00196
Inclination
98.8752°
RAAN
46.0453°
Arg. of periapsis
178.2412°
True anomaly
181.87713°
Mean anomaly
181.8845°
Eccentric anomaly
181.88081°
Mean motion
3.58786 °/min
Orbital period
100.34 mins
BSTAR
0.0031168
Loading maneuver chart data...
Computing Atmospheric mass density...
Loading historical data...
Loading historical data...
Loading historical data...
Loading historical data...
Loading historical data...
Loading historical data...
Loading historical data...

Documentation

Showing up to 5 results
|